TimeEET,TemperatureF,Dew PointF,Humidity,Sea Level PressureIn,VisibilityMPH,Wind Direction,Wind SpeedMPH,Gust SpeedMPH,PrecipitationIn,Events,Conditions,WindDirDegrees,DateUTC
12:20 AM,51.8,48.2,88,30.30,6.2,NNW,3.5,-,N/A,,Scattered Clouds,340,2013-01-02 22:20:00
12:50 AM,50.0,48.2,94,30.30,6.2,NNW,4.6,-,N/A,,Scattered Clouds,340,2013-01-02 22:50:00
1:20 AM,50.0,48.2,94,30.30,6.2,North,3.5,-,N/A,,Scattered Clouds,350,2013-01-02 23:20:00
1:50 AM,50.0,48.2,94,30.30,6.2,North,4.6,-,N/A,,Scattered Clouds,350,2013-01-02 23:50:00
2:00 AM,50,48,91,30.30,6,North,4.6,,,,Partly Cloudy,350,2013-01-03 00:00:00
2:20 AM,50.0,48.2,94,30.30,6.2,North,3.5,-,N/A,,Scattered Clouds,350,2013-01-03 00:20:00
2:50 AM,50.0,48.2,94,30.30,6.2,NW,4.6,-,N/A,,Scattered Clouds,320,2013-01-03 00:50:00
3:20 AM,50.0,48.2,94,30.30,6.2,NW,4.6,-,N/A,,Scattered Clouds,320,2013-01-03 01:20:00
3:50 AM,50.0,46.4,87,30.30,6.2,North,5.8,-,N/A,,Scattered Clouds,350,2013-01-03 01:50:00
4:20 AM,48.2,46.4,93,30.30,6.2,NNW,5.8,-,N/A,,Scattered Clouds,340,2013-01-03 02:20:00
4:50 AM,48.2,46.4,93,30.30,6.2,Variable,1.2,-,N/A,,Scattered Clouds,0,2013-01-03 02:50:00
5:20 AM,48.2,46.4,93,30.30,6.2,NNW,5.8,-,N/A,,Scattered Clouds,330,2013-01-03 03:20:00
5:50 AM,48.2,44.6,87,30.33,6.2,NNW,4.6,-,N/A,,Scattered Clouds,340,2013-01-03 03:50:00
6:20 AM,50.0,46.4,87,30.33,6.2,North,4.6,-,N/A,,Scattered Clouds,350,2013-01-03 04:20:00
6:50 AM,50.0,46.4,87,30.33,6.2,North,6.9,-,N/A,,Scattered Clouds,350,2013-01-03 04:50:00
7:20 AM,50.0,46.4,87,30.33,6.2,North,6.9,-,N/A,,Scattered Clouds,360,2013-01-03 05:20:00
7:50 AM,50.0,46.4,87,30.33,6.2,North,3.5,-,N/A,,Scattered Clouds,360,2013-01-03 05:50:00
8:00 AM,50,46,82,30.33,6,North,3.5,,,,Partly Cloudy,0,2013-01-03 06:00:00
8:20 AM,50.0,46.4,87,30.33,6.2,NNW,5.8,-,N/A,,Scattered Clouds,340,2013-01-03 06:20:00
8:50 AM,51.8,48.2,88,30.33,6.2,North,6.9,-,N/A,,Scattered Clouds,350,2013-01-03 06:50:00
9:20 AM,53.6,48.2,82,30.33,6.2,NNW,5.8,-,N/A,,Scattered Clouds,330,2013-01-03 07:20:00
9:50 AM,59.0,48.2,67,30.36,6.2,NNW,4.6,-,N/A,,Scattered Clouds,330,2013-01-03 07:50:00
10:20 AM,59.0,48.2,67,30.36,6.2,North,3.5,-,N/A,,Partly Cloudy,10,2013-01-03 08:20:00
10:50 AM,62.6,48.2,59,30.33,6.2,NNW,1.2,-,N/A,,Partly Cloudy,330,2013-01-03 08:50:00
11:20 AM,62.6,48.2,59,30.33,6.2,Variable,2.3,-,N/A,,Partly Cloudy,0,2013-01-03 09:20:00
11:50 AM,64.4,46.4,52,30.30,6.2,Variable,2.3,-,N/A,,Partly Cloudy,0,2013-01-03 09:50:00
12:20 PM,64.4,44.6,49,30.30,6.2,Variable,2.3,-,N/A,,Partly Cloudy,0,2013-01-03 10:20:00
12:50 PM,64.4,44.6,49,30.27,6.2,Variable,3.5,-,N/A,,Partly Cloudy,0,2013-01-03 10:50:00
1:20 PM,64.4,48.2,56,30.27,6.2,SSW,3.5,-,N/A,,Partly Cloudy,200,2013-01-03 11:20:00
1:50 PM,64.4,48.2,56,30.27,6.2,South,6.9,-,N/A,,Partly Cloudy,180,2013-01-03 11:50:00
2:00 PM,64,46,41,30.26,12,South,6.9,,,,Scattered Clouds,180,2013-01-03 12:00:00
2:20 PM,62.6,48.2,59,30.27,6.2,South,9.2,-,N/A,,Partly Cloudy,190,2013-01-03 12:20:00
2:50 PM,62.6,50.0,63,30.27,6.2,South,6.9,-,N/A,,Partly Cloudy,190,2013-01-03 12:50:00
3:20 PM,62.6,51.8,68,30.27,6.2,South,9.2,-,N/A,,Partly Cloudy,190,2013-01-03 13:20:00
3:50 PM,60.8,53.6,77,30.24,6.2,South,9.2,-,N/A,,Partly Cloudy,190,2013-01-03 13:50:00
4:20 PM,60.8,53.6,77,30.24,6.2,SSW,6.9,-,N/A,,Partly Cloudy,200,2013-01-03 14:20:00
4:50 PM,57.2,51.8,82,30.24,6.2,SSW,5.8,-,N/A,,Partly Cloudy,200,2013-01-03 14:50:00
5:20 PM,55.4,51.8,88,30.24,6.2,SSW,5.8,-,N/A,,Partly Cloudy,210,2013-01-03 15:20:00
5:50 PM,55.4,51.8,88,30.27,6.2,Variable,1.2,-,N/A,,Partly Cloudy,0,2013-01-03 15:50:00
6:20 PM,53.6,51.8,94,30.27,6.2,North,3.5,-,N/A,,Partly Cloudy,360,2013-01-03 16:20:00
6:50 PM,53.6,51.8,94,30.27,3.7,North,5.8,-,N/A,,Partly Cloudy,360,2013-01-03 16:50:00
7:20 PM,53.6,50.0,88,30.27,2.5,NNE,4.6,-,N/A,,Partly Cloudy,20,2013-01-03 17:20:00
7:50 PM,51.8,50.0,94,30.27,2.5,North,5.8,-,N/A,,Partly Cloudy,360,2013-01-03 17:50:00
8:00 PM,52,50,91,30.26,2,North,5.8,,,,Mist,0,2013-01-03 18:00:00
8:20 PM,51.8,50.0,94,30.27,2.5,North,6.9,-,N/A,,Partly Cloudy,350,2013-01-03 18:20:00
8:50 PM,50.0,50.0,100,30.24,2.5,NNW,4.6,-,N/A,,Partly Cloudy,330,2013-01-03 18:50:00
9:20 PM,50.0,48.2,94,30.27,2.5,North,5.8,-,N/A,,Partly Cloudy,350,2013-01-03 19:20:00
9:50 PM,48.2,48.2,100,30.27,3.7,NNW,4.6,-,N/A,,Partly Cloudy,330,2013-01-03 19:50:00
10:20 PM,50.0,48.2,94,30.24,3.7,North,4.6,-,N/A,,Partly Cloudy,360,2013-01-03 20:20:00
10:50 PM,48.2,48.2,100,30.24,3.7,North,5.8,-,N/A,,Partly Cloudy,350,2013-01-03 20:50:00
11:20 PM,48.2,48.2,100,30.24,3.7,North,5.8,-,N/A,,Partly Cloudy,350,2013-01-03 21:20:00
11:50 PM,50.0,48.2,94,30.24,6.2,NNW,5.8,-,N/A,,Partly Cloudy,330,2013-01-03 21:50:00